Wind_Speed
14 15 21 25 26 25 25 18 19 21 20 20 19 17 14 13 12 12 13 11 8 8 7 20 21 20 15 14 12 10 7 5 2 2 4 7 8 7 6 6 8 10 10
16 16 16 17 14 15 14 16 17 16 20 22 22 18 15 14 13 13 10 4 2 6 6 16 19 19 16 13 10 7 5 3 1 4 7 7 6 7 9 11 11 12 11
18 17 15 14 12 10 10 9 12 10 7 12 12 13 13 15 14 14 11 8 10 14 10 14 21 19 15 11 8 6 4 2 4 4 4 5 9 10 10 10 10 9 9
18 17 16 14 13 12 11 10 9 9 11 11 12 14 16 15 13 13 11 10 11 13 14 11 12 18 18 7 6 4 2 2 2 6 8 8 9 9 8 7 7 7 6
22 22 21 18 17 16 16 14 12 11 10 10 12 14 13 13 13 13 12 12 12 13 14 14 12 9 8 7 5 5 7 11 11 11 9 9 7 6 5 5 5 6 6
19 20 20 19 19 19 18 16 13 12 11 10 10 10 12 14 16 17 18 16 16 15 12 13 10 10 8 11 13 14 14 13 11 8 7 5 3 3 3 5 7 8 9
18 19 20 19 18 17 18 17 16 16 16 16 12 9 8 12 15 17 16 18 17 14 13 12 11 12 12 12 13 12 11 9 7 6 3 1 2 4 6 8 9 10 9
18 18 19 18 17 17 17 17 18 20 19 16 13 12 10 11 19 17 16 15 12 11 14 13 14 14 13 11 10 9 7 6 3 2 1 2 4 6 7 8 8 7 6
17 18 19 18 17 17 16 17 18 20 18 17 18 14 15 12 21 17 16 10 14 14 15 13 14 14 12 10 8 6 4 2 0 2 4 5 5 6 6 7 7 7 8
15 15 16 16 15 17 17 16 17 18 18 18 17 16 13 12 15 22 14 13 14 15 13 12 12 12 10 7 5 3 1 1 3 3 3 4 4 4 5 6 8 10 11
13 13 13 13 13 15 16 16 16 17 17 17 17 16 16 16 17 16 15 15 13 14 15 13 12 9 8 6 3 1 1 2 3 3 4 3 4 4 6 9 10 11 12
14 12 11 10 11 12 14 14 15 16 15 15 16 16 15 15 15 15 14 14 13 12 11 11 9 7 5 3 3 3 4 4 4 3 2 3 5 6 8 10 11 13 15
14 13 11 9 9 10 11 12 12 14 15 15 14 14 14 14 14 13 13 12 11 9 8 7 6 4 3 3 3 3 3 2 2 2 3 4 5 7 9 12 15 17 20
12 12 12 10 8 9 10 11 10 11 12 13 13 13 12 12 12 11 11 11 11 10 9 8 6 4 2 1 1 2 2 1 1 1 1 3 6 10 13 15 18 21 23
13 12 11 11 10 9 9 10 10 10 10 11 10 10 10 10 10 9 9 8 8 7 7 6 5 4 2 2 2 2 1 1 1 1 3 6 8 11 15 17 19 20 21
13 10 10 11 11 11 10 9 9 10 10 9 9 8 8 8 7 6 6 6 5 4 3 3 2 1 1 1 1 2 2 2 2 3 4 7 10 12 13 15 17 19 22
14 12 11 10 11 12 12 10 10 9 10 11 10 10 9 9 8 7 6 6 5 4 4 3 2 2 3 3 4 4 4 4 4 4 5 7 7 9 12 16 20 23 25
13 12 12 11 11 13 13 13 12 11 12 12 12 13 12 10 9 9 8 8 7 7 6 6 5 4 4 5 6 6 7 6 6 6 5 5 7 11 16 19 22 25 28
14 13 12 12 12 13 13 14 14 14 13 12 13 13 14 14 13 11 10 10 9 9 8 8 8 7 7 8 9 9 9 9 8 7 8 9 13 16 20 23 25 27 29
18 15 14 14 12 11 10 11 13 14 15 15 15 15 15 15 16 15 13 12 12 11 10 11 11 11 11 12 12 13 13 12 11 11 13 15 18 21 23 25 27 31 33
20 18 16 16 15 12 11 10 11 12 14 16 18 17 16 16 17 18 17 15 15 14 14 14 14 14 15 15 15 16 16 16 16 17 19 21 24 26 27 30 32 34 37
21 21 19 19 17 14 13 11 11 12 13 16 17 18 19 19 18 19 20 19 18 18 17 17 17 17 17 18 18 19 20 21 22 23 24 26 29 31 33 35 38 40 42
24 22 21 20 19 18 16 13 13 13 13 15 19 21 22 21 21 22 22 22 21 21 21 20 20 20 20 20 22 23 24 24 26 28 30 31 33 36 38 41 43 45 48
27 24 23 22 21 20 18 15 15 14 14 14 15 19 22 22 22 24 25 25 26 25 24 24 23 23 23 24 25 27 27 28 29 31 33 34 36 39 42 45 47 49 53
31 27 25 24 23 21 20 18 17 14 15 15 16 18 21 23 23 25 26 27 28 28 28 27 27 26 26 26 28 30 30 31 33 34 35 37 39 42 45 49 50 53 56
36 31 25 23 23 21 20 19 18 17 16 15 19 19 20 23 25 26 27 28 29 29 29 29 29 29 29 29 32 34 34 34 35 37 38 40 42 45 49 51 53 56 60
Wind_Direction
200 200 203 223 201 192 207 194 201 196 196 192 189 194 189 187 188 180 205 184 134 136 197 221 193 159 164 162 161 161 160 168 208 306 339 338 344 344 4 32 52 57 55
204 210 213 214 229 188 203 203 202 200 187 183 181 182 184 190 191 196 210 177 157 125 142 168 164 162 167 166 168 168 175 189 251 329 339 342 14 52 65 69 65 58 52
195 196 195 194 187 181 182 178 175 171 178 181 190 197 193 190 180 181 192 155 134 134 139 161 162 163 167 169 174 180 185 254 319 346 24 68 80 78 71 65 59 50 38
149 151 147 143 146 145 154 161 161 164 180 187 184 190 200 197 185 182 178 161 147 135 131 125 168 191 184 155 166 191 231 278 77 102 101 95 86 80 69 54 44 30 15
126 123 122 126 129 133 135 138 139 149 171 181 182 179 187 187 187 187 177 169 158 154 146 146 136 134 160 171 163 149 122 112 114 112 108 95 82 70 54 32 12 359 348
126 123 122 125 123 125 129 130 132 140 150 155 155 175 184 180 194 203 174 173 160 161 167 169 151 123 126 123 118 114 113 115 112 108 97 94 85 43 9 354 343 343 334
125 122 120 121 121 124 125 122 118 115 118 120 127 144 167 189 161 157 173 172 168 163 159 169 156 143 128 121 117 115 112 110 110 104 102 85 21 352 354 352 343 337 337
125 122 117 115 115 117 118 120 116 119 124 128 136 132 141 157 154 147 134 131 144 156 159 162 156 145 140 137 127 125 121 116 104 101 31 350 1 359 354 344 340 338 336
132 124 117 114 112 112 116 116 119 124 130 122 123 117 129 156 152 146 128 129 130 131 148 141 146 147 149 145 139 136 125 120 15 360 3 358 356 345 340 341 340 338 339
138 130 124 119 115 111 111 116 120 123 132 131 130 126 121 117 111 150 130 123 130 136 131 131 146 151 150 151 150 161 159 2 344 344 343 335 329 342 346 344 342 342 339
136 138 132 124 121 114 110 111 121 126 124 127 128 124 125 125 127 125 125 129 126 134 139 149 153 158 161 169 183 226 299 287 288 300 313 335 342 343 342 341 340 336 332
144 147 139 139 135 126 116 111 116 123 129 128 125 125 123 122 124 128 133 132 136 140 148 153 159 166 167 185 224 245 256 275 289 308 328 337 339 337 338 339 335 332 330
157 152 155 158 153 142 130 122 119 121 125 124 124 124 125 125 126 127 130 134 136 140 144 144 151 157 176 215 246 267 278 276 292 325 334 337 342 340 332 330 331 328 325
161 160 173 175 172 163 152 144 136 129 129 129 127 127 127 127 126 125 122 120 119 119 118 115 112 108 110 167 231 238 236 249 311 326 344 337 329 331 333 332 333 332 329
173 177 180 184 192 188 175 168 166 158 147 140 138 139 137 135 135 136 136 136 136 134 132 129 125 127 133 154 202 218 209 189 180 267 325 332 336 339 342 343 341 339 338
180 189 190 190 198 202 196 189 185 183 183 176 167 162 159 158 156 158 163 167 172 176 173 165 160 166 293 311 156 147 176 208 258 305 324 338 344 353 356 359 3 4 3
189 195 205 201 204 204 203 203 203 200 202 204 205 196 191 184 180 183 192 198 196 196 200 219 247 264 261 237 227 242 251 263 278 296 319 340 354 1 2 3 358 355 354
197 201 205 208 208 210 206 210 210 211 216 215 219 220 216 213 205 201 201 204 209 215 226 239 251 263 262 254 253 257 263 263 266 286 307 306 331 338 341 341 342 344 344
208 209 208 208 206 206 208 213 217 219 225 226 229 229 227 225 224 223 221 223 226 230 238 250 259 261 256 256 261 263 263 261 269 277 281 299 322 327 328 331 332 332 331
219 216 212 209 205 203 207 214 222 229 231 232 233 235 233 231 231 230 235 237 241 245 249 256 261 260 259 264 266 273 274 267 271 276 286 300 309 316 320 323 323 324 325
223 220 213 208 209 209 215 223 232 239 244 242 240 239 240 236 234 234 237 243 245 248 252 256 259 260 263 269 274 279 273 266 269 275 285 293 301 307 314 316 317 319 320
229 226 216 214 214 217 224 231 241 251 259 256 249 245 241 239 238 237 238 245 247 250 254 258 261 264 267 272 279 282 275 269 269 277 285 292 298 305 308 311 314 316 317
234 236 227 219 218 223 230 236 246 255 268 270 260 251 246 243 240 242 243 246 250 254 258 261 264 268 269 271 276 281 279 275 274 277 284 291 297 300 304 307 310 313 315
233 235 230 226 227 230 236 240 248 257 272 283 277 268 260 254 249 248 248 250 253 257 262 264 265 266 267 270 277 284 281 277 277 279 283 290 296 300 302 304 308 312 314
231 233 234 231 230 234 239 245 254 260 270 286 284 268 258 251 246 248 251 252 253 256 259 262 265 268 268 270 279 285 282 279 281 282 285 291 295 299 302 304 307 311 313
234 238 243 241 238 239 243 249 257 265 273 284 285 275 262 256 254 252 253 256 258 259 261 263 264 267 268 271 280 285 283 281 284 286 288 292 295 298 301 304 307 311 314
Height
5804 5806 5808 5809 5809 5811 5814 5817 5818 5819 5821 5823 5826 5828 5830 5832 5833 5835 5835 5837 5837 5838 5839 5840 5843 5846 5849 5850 5851 5853 5854 5855 5855 5855 5856 5856 5855 5854 5854 5854 5853 5854 5854
5803 5805 5807 5809 5808 5810 5812 5813 5815 5816 5818 5820 5823 5826 5829 5831 5832 5834 5835 5836 5837 5839 5839 5841 5844 5847 5850 5851 5852 5853 5854 5855 5855 5856 5855 5855 5855 5854 5855 5855 5855 5855 5855
5802 5804 5806 5808 5807 5808 5810 5812 5814 5817 5819 5821 5824 5826 5828 5830 5832 5834 5835 5837 5838 5839 5841 5842 5844 5847 5849 5851 5852 5854 5855 5855 5855 5855 5855 5856 5856 5856 5856 5856 5856 5856 5856
5803 5804 5806 5808 5808 5810 5812 5814 5815 5817 5819 5821 5823 5825 5828 5830 5832 5834 5836 5838 5839 5840 5842 5844 5846 5848 5849 5852 5853 5854 5854 5854 5855 5856 5857 5857 5858 5857 5858 5858 5857 5856 5856
5806 5807 5808 5809 5811 5813 5815 5816 5818 5819 5821 5822 5824 5826 5828 5830 5832 5835 5836 5838 5840 5842 5843 5845 5848 5850 5851 5853 5853 5854 5854 5856 5857 5858 5858 5858 5859 5859 5859 5858 5858 5857 5857
5809 5809 5810 5812 5814 5815 5817 5818 5820 5821 5822 5823 5824 5827 5828 5830 5832 5834 5837 5839 5840 5842 5845 5847 5849 5851 5852 5853 5854 5855 5856 5857 5859 5859 5859 5859 5860 5859 5859 5858 5858 5857 5857
5811 5812 5813 5815 5817 5818 5819 5820 5821 5821 5823 5824 5826 5828 5829 5830 5832 5834 5837 5839 5841 5844 5846 5848 5850 5852 5853 5855 5855 5856 5857 5858 5859 5859 5859 5860 5859 5860 5859 5859 5858 5856 5855
5813 5814 5815 5818 5819 5821 5821 5822 5822 5823 5825 5827 5828 5830 5830 5831 5833 5836 5838 5840 5842 5844 5847 5849 5851 5853 5854 5856 5857 5857 5858 5858 5859 5859 5860 5861 5860 5859 5858 5857 5857 5856 5855
5814 5816 5818 5820 5822 5823 5824 5824 5824 5825 5827 5828 5829 5830 5831 5832 5835 5838 5839 5842 5843 5845 5848 5849 5851 5853 5855 5856 5857 5858 5857 5858 5860 5860 5860 5859 5858 5858 5857 5857 5857 5856 5855
5817 5818 5820 5822 5824 5825 5826 5826 5827 5828 5829 5830 5831 5832 5833 5835 5837 5838 5841 5843 5845 5847 5849 5851 5852 5854 5855 5856 5857 5858 5858 5859 5859 5859 5858 5858 5858 5858 5858 5858 5857 5856 5855
5818 5820 5822 5824 5826 5827 5828 5828 5830 5831 5832 5833 5834 5835 5836 5838 5840 5841 5843 5845 5847 5849 5851 5852 5853 5855 5855 5857 5858 5858 5858 5858 5858 5858 5858 5858 5858 5858 5858 5858 5856 5855 5854
5818 5821 5823 5826 5827 5829 5830 5831 5832 5833 5834 5835 5836 5838 5839 5840 5842 5844 5845 5847 5849 5850 5852 5853 5854 5855 5856 5857 5857 5857 5857 5857 5858 5857 5857 5858 5858 5858 5858 5857 5855 5853 5851
5819 5821 5824 5827 5829 5830 5831 5833 5834 5835 5836 5838 5839 5840 5842 5843 5844 5845 5847 5848 5850 5851 5852 5853 5854 5854 5855 5855 5856 5856 5856 5857 5857 5857 5857 5857 5857 5857 5856 5854 5853 5851 5849
5819 5822 5825 5828 5829 5831 5833 5834 5835 5837 5838 5839 5841 5842 5844 5845 5846 5847 5848 5849 5850 5852 5853 5853 5854 5854 5855 5855 5856 5856 5856 5856 5856 5857 5856 5856 5856 5855 5853 5852 5850 5848 5846
5819 5822 5825 5827 5829 5831 5833 5835 5837 5837 5839 5841 5842 5844 5845 5846 5848 5849 5850 5851 5851 5852 5853 5854 5854 5855 5855 5855 5855 5855 5855 5855 5855 5855 5855 5855 5854 5853 5851 5849 5848 5846 5843
5819 5821 5824 5826 5829 5831 5833 5835 5837 5838 5840 5841 5843 5844 5846 5847 5849 5850 5850 5851 5852 5852 5853 5854 5854 5854 5854 5854 5854 5854 5854 5854 5854 5854 5854 5853 5852 5850 5849 5847 5845 5843 5840
5817 5820 5822 5825 5827 5830 5832 5834 5836 5838 5839 5841 5842 5844 5845 5847 5848 5849 5850 5851 5852 5852 5853 5853 5853 5854 5854 5854 5854 5853 5853 5853 5853 5852 5852 5851 5850 5848 5846 5844 5841 5839 5836
5817 5819 5821 5824 5826 5829 5831 5833 5835 5837 5838 5839 5841 5842 5844 5846 5847 5848 5849 5850 5851 5852 5852 5853 5853 5853 5853 5853 5852 5852 5852 5851 5851 5851 5850 5849 5847 5845 5843 5841 5838 5835 5832
5816 5818 5820 5822 5825 5827 5829 5832 5834 5835 5836 5838 5840 5841 5843 5844 5846 5847 5848 5849 5850 5850 5851 5851 5852 5851 5851 5851 5851 5850 5850 5849 5849 5848 5847 5845 5843 5842 5840 5837 5834 5832 5829
5814 5817 5819 5821 5824 5826 5828 5830 5832 5833 5834 5836 5837 5839 5840 5842 5844 5845 5846 5847 5847 5848 5849 5849 5849 5849 5849 5849 5848 5848 5847 5847 5846 5845 5843 5842 5840 5837 5835 5833 5831 5827 5824
5812 5815 5817 5820 5822 5825 5827 5828 5830 5831 5832 5833 5835 5837 5838 5840 5841 5842 5843 5844 5845 5846 5846 5847 5847 5847 5846 5846 5846 5845 5844 5843 5842 5841 5839 5838 5835 5833 5831 5829 5826 5823 5819
5810 5812 5815 5817 5820 5823 5825 5826 5828 5829 5830 5831 5832 5833 5835 5836 5837 5839 5840 5841 5842 5842 5843 5843 5843 5843 5843 5843 5842 5841 5840 5840 5838 5837 5835 5834 5831 5828 5826 5823 5820 5816 5811
5807 5810 5812 5815 5818 5820 5822 5824 5826 5827 5827 5828 5828 5829 5831 5832 5834 5835 5836 5837 5838 5839 5839 5840 5840 5840 5840 5839 5838 5837 5836 5835 5833 5832 5830 5828 5826 5823 5820 5817 5813 5809 5804
5803 5806 5809 5812 5815 5817 5819 5821 5823 5824 5825 5825 5825 5826 5827 5829 5831 5831 5832 5833 5834 5835 5835 5835 5835 5835 5835 5834 5833 5832 5831 5830 5828 5827 5825 5823 5820 5817 5813 5810 5806 5801 5795
5798 5801 5805 5808 5811 5813 5816 5818 5820 5821 5821 5822 5822 5822 5823 5824 5825 5826 5828 5829 5830 5830 5830 5830 5830 5830 5830 5829 5829 5827 5825 5823 5822 5820 5819 5816 5813 5809 5805 5801 5797 5792 5786
5792 5797 5801 5804 5806 5809 5812 5814 5815 5816 5817 5818 5817 5817 5818 5819 5821 5822 5823 5824 5825 5825 5825 5825 5825 5825 5825 5824 5823 5821 5819 5817 5815 5813 5811 5808 5805 5801 5796 5791 5786 5781 5775